Location: ??? ????
(38.0580°N, 23.1536°E)
Time: 13:27:32
(UTC+00:00)

Okean 1 - Pass Details

Date: 13 December 2025
Orbit: 465 x 484 km, 82.5° (Epoch: 17 January)

Event Time Altitude Azimuth Distance (km) Brightness Sun altitude
Rises 15:58:03 0° 161° (SSE) 2,525 6.7 -9.7°
Reaches altitude 10° 16:00:23 10° 148° (SSE) 1,647 5.6 -10.1°
Maximum altitude 16:03:23 25° 91° (E) 986 4.1 -10.6°
Enters shadow 16:05:52 13° 39° (NE) 1,464 5.0 -11.1°
